ARG1870 SABE-SAWH

Flight info

Callsign ARG1870
Flight time 3h 12m
Altitude 34000
Route PTA8 GBE UP664 DIL UT662 VUPNI/N0467F360 UT662 ASKAS UT704 DABLI DABLI1Q
Aircraft B738/M-SDE2E3FGHIRWXY/LB1

Departure

Time 2026-05-05 19:45
Airport Aeroparque Jorge Newbery (SABE)

Arrival

Time 2026-05-05 22:57
Airport Ushuaia - Malvinas Argentinas International Airport (SAWH)
Time Latitude Longitude Altitude Speed Heading
2026-05-05 19:18 -34.55798 -58.41250 24 ft 0 kts 36°
2026-05-05 19:34 -34.55800 -58.41251 24 ft 2 kts 36°
2026-05-05 19:35 -34.55839 -58.41273 24 ft 4 kts 307°
2026-05-05 19:35 -34.55853 -58.41248 24 ft 4 kts 303°
2026-05-05 19:35 -34.55863 -58.41229 24 ft 0 kts 306°
2026-05-05 19:38 -34.55860 -58.41234 24 ft 4 kts 306°
2026-05-05 19:38 -34.55861 -58.41275 24 ft 5 kts 238°
2026-05-05 19:38 -34.55890 -58.41301 24 ft 5 kts 212°
2026-05-05 19:39 -34.55905 -58.41339 24 ft 5 kts 269°
2026-05-05 19:39 -34.55892 -58.41381 27 ft 6 kts 297°
2026-05-05 19:39 -34.55867 -58.41440 24 ft 10 kts 297°
2026-05-05 19:39 -34.55830 -58.41526 24 ft 12 kts 297°
2026-05-05 19:40 -34.55793 -58.41614 24 ft 12 kts 297°
2026-05-05 19:40 -34.55757 -58.41700 26 ft 11 kts 297°
2026-05-05 19:40 -34.55721 -58.41783 24 ft 11 kts 301°
2026-05-05 19:40 -34.55679 -58.41859 25 ft 11 kts 304°
2026-05-05 19:41 -34.55638 -58.41932 26 ft 10 kts 304°
2026-05-05 19:41 -34.55598 -58.42003 25 ft 10 kts 304°
2026-05-05 19:41 -34.55559 -58.42071 24 ft 10 kts 307°
2026-05-05 19:41 -34.55518 -58.42136 29 ft 10 kts 307°
2026-05-05 19:42 -34.55479 -58.42199 25 ft 9 kts 307°
2026-05-05 19:42 -34.55441 -58.42261 28 ft 9 kts 307°
2026-05-05 19:42 -34.55403 -58.42321 26 ft 9 kts 307°
2026-05-05 19:42 -34.55383 -58.42353 24 ft 1 kts 307°
2026-05-05 19:43 -34.55379 -58.42359 24 ft 1 kts 307°
2026-05-05 19:43 -34.55375 -58.42369 24 ft 3 kts 298°
2026-05-05 19:43 -34.55361 -58.42440 25 ft 11 kts 279°
2026-05-05 19:43 -34.55389 -58.42506 26 ft 7 kts 214°
2026-05-05 19:44 -34.55416 -58.42493 27 ft 1 kts 120°
2026-05-05 19:44 -34.55489 -58.42360 26 ft 53 kts 124°
2026-05-05 19:44 -34.55840 -58.41730 26 ft 125 kts 124°
2026-05-05 19:45 -34.56443 -58.40651 93 ft 178 kts 124°
2026-05-05 19:45 -34.56923 -58.39795 575 ft 184 kts 123°
2026-05-05 19:45 -34.57615 -58.38446 1356 ft 197 kts 115°
2026-05-05 19:45 -34.57767 -58.36136 1654 ft 226 kts 69°
2026-05-05 19:46 -34.56850 -58.34562 1963 ft 239 kts 36°
2026-05-05 19:46 -34.55340 -58.33582 2355 ft 252 kts 29°
2026-05-05 19:46 -34.54043 -58.32009 2526 ft 283 kts 62°
2026-05-05 19:46 -34.53647 -58.29631 3111 ft 295 kts 96°
2026-05-05 19:47 -34.54389 -58.27368 4137 ft 290 kts 130°
2026-05-05 19:47 -34.55960 -58.25933 5122 ft 283 kts 163°
2026-05-05 19:47 -34.57867 -58.25369 5839 ft 285 kts 177°
2026-05-05 19:47 -34.59855 -58.25324 6442 ft 286 kts 192°
2026-05-05 19:48 -34.61828 -58.25641 7153 ft 284 kts 195°
2026-05-05 19:48 -34.63771 -58.26036 7961 ft 284 kts 195°
2026-05-05 19:48 -34.65729 -58.26445 8696 ft 287 kts 194°
2026-05-05 19:48 -34.67702 -58.26846 9493 ft 288 kts 193°
2026-05-05 19:49 -34.69665 -58.27231 10287 ft 287 kts 192°
2026-05-05 19:49 -34.70992 -58.27488 10564 ft 296 kts 192°
2026-05-05 19:49 -34.73859 -58.28039 10758 ft 326 kts 192°
2026-05-05 19:49 -34.76171 -58.28473 10904 ft 346 kts 192°
2026-05-05 19:50 -34.78616 -58.28925 11024 ft 365 kts 191°
2026-05-05 19:50 -34.81182 -58.29394 11144 ft 381 kts 191°
2026-05-05 19:50 -34.83861 -58.29880 11308 ft 395 kts 191°
2026-05-05 19:50 -34.86604 -58.30373 11662 ft 401 kts 191°
2026-05-05 19:51 -34.89377 -58.30871 12141 ft 404 kts 191°
2026-05-05 19:51 -34.92166 -58.31371 12640 ft 407 kts 191°
2026-05-05 19:51 -34.94979 -58.31877 13114 ft 410 kts 191°
2026-05-05 19:51 -34.97789 -58.32384 13534 ft 414 kts 191°
2026-05-05 19:52 -35.00659 -58.32903 13959 ft 418 kts 192°
2026-05-05 19:52 -35.03540 -58.33424 14393 ft 420 kts 192°
2026-05-05 19:52 -35.06438 -58.33949 14828 ft 422 kts 192°
2026-05-05 19:52 -35.09353 -58.34477 15246 ft 425 kts 192°
2026-05-05 19:53 -35.12288 -58.35010 15663 ft 428 kts 193°
2026-05-05 19:53 -35.15234 -58.35545 16116 ft 429 kts 193°
2026-05-05 19:53 -35.18190 -58.36081 16610 ft 429 kts 193°
2026-05-05 19:53 -35.21153 -58.36620 17004 ft 432 kts 193°
2026-05-05 19:54 -35.23125 -58.36979 17238 ft 435 kts 194°
2026-05-05 19:54 -35.27140 -58.37712 17752 ft 438 kts 194°
2026-05-05 19:54 -35.30168 -58.38264 18161 ft 440 kts 194°
2026-05-05 19:54 -35.32181 -58.38631 18396 ft 442 kts 194°
2026-05-05 19:55 -35.35227 -58.39186 18749 ft 443 kts 194°
2026-05-05 19:55 -35.39278 -58.39924 19310 ft 443 kts 194°
2026-05-05 19:55 -35.41341 -58.40301 19580 ft 443 kts 194°
2026-05-05 19:55 -35.44397 -58.40860 19916 ft 445 kts 194°
2026-05-05 19:56 -35.47469 -58.41423 20238 ft 448 kts 194°
2026-05-05 19:56 -35.50558 -58.41989 20577 ft 450 kts 194°
2026-05-05 19:56 -35.53651 -58.42556 20928 ft 451 kts 194°
2026-05-05 19:56 -35.56764 -58.43127 21266 ft 452 kts 194°
2026-05-05 19:57 -35.59882 -58.43700 21609 ft 454 kts 194°
2026-05-05 19:57 -35.62967 -58.44266 21980 ft 454 kts 194°
2026-05-05 19:57 -35.66098 -58.44842 22314 ft 456 kts 194°
2026-05-05 19:57 -35.69241 -58.45421 22625 ft 458 kts 194°
2026-05-05 19:58 -35.72393 -58.46001 22923 ft 459 kts 194°
2026-05-05 19:58 -35.75525 -58.46743 23210 ft 456 kts 200°
2026-05-05 19:58 -35.78475 -58.48043 23494 ft 452 kts 208°
2026-05-05 19:58 -35.81372 -58.49555 23760 ft 452 kts 208°
2026-05-05 19:59 -35.84274 -58.51082 23984 ft 454 kts 208°
2026-05-05 19:59 -35.87191 -58.52610 24181 ft 457 kts 208°
2026-05-05 19:59 -35.90125 -58.54135 24397 ft 458 kts 208°
2026-05-05 19:59 -35.93072 -58.55655 24636 ft 459 kts 208°
2026-05-05 20:00 -35.96020 -58.57169 24854 ft 461 kts 207°
2026-05-05 20:00 -36.05428 -58.61984 25544 ft 464 kts 207°
2026-05-05 20:01 -36.08408 -58.63511 25856 ft 463 kts 207°
2026-05-05 20:01 -36.11377 -58.65032 26216 ft 461 kts 207°
2026-05-05 20:01 -36.14329 -58.66547 26567 ft 459 kts 208°
2026-05-05 20:01 -36.17276 -58.68061 26870 ft 458 kts 208°
2026-05-05 20:02 -36.20220 -58.69576 27153 ft 458 kts 208°
2026-05-05 20:02 -36.23160 -58.71091 27460 ft 457 kts 208°
2026-05-05 20:02 -36.26096 -58.72604 27797 ft 456 kts 208°
2026-05-05 20:02 -36.29020 -58.74113 28115 ft 455 kts 208°
2026-05-05 20:03 -36.31944 -58.75622 28433 ft 454 kts 208°
2026-05-05 20:03 -36.34849 -58.77123 28842 ft 452 kts 208°
2026-05-05 20:03 -36.37747 -58.78621 29275 ft 449 kts 208°
2026-05-05 20:03 -36.40628 -58.80111 29599 ft 449 kts 208°
2026-05-05 20:04 -36.43509 -58.81604 29871 ft 449 kts 208°
2026-05-05 20:04 -36.46388 -58.83097 30161 ft 448 kts 208°
2026-05-05 20:04 -36.49263 -58.84589 30473 ft 447 kts 208°
2026-05-05 20:04 -36.52124 -58.86074 30776 ft 445 kts 208°
2026-05-05 20:05 -36.54982 -58.87559 31047 ft 444 kts 208°
2026-05-05 20:05 -36.57829 -58.89040 31315 ft 443 kts 208°
2026-05-05 20:05 -36.60668 -58.90516 31661 ft 441 kts 209°
2026-05-05 20:05 -36.63486 -58.91983 32008 ft 438 kts 209°
2026-05-05 20:06 -36.66292 -58.93445 32286 ft 437 kts 209°
2026-05-05 20:06 -36.69095 -58.94909 32505 ft 437 kts 209°
2026-05-05 20:06 -36.71878 -58.96363 32740 ft 436 kts 209°
2026-05-05 20:06 -36.74669 -58.97822 33017 ft 435 kts 209°
2026-05-05 20:07 -36.77425 -58.99262 33290 ft 434 kts 209°
2026-05-05 20:07 -36.80224 -59.00726 33540 ft 433 kts 210°
2026-05-05 20:07 -36.83009 -59.02185 33763 ft 432 kts 210°
2026-05-05 20:07 -36.85779 -59.03638 33977 ft 431 kts 210°
2026-05-05 20:08 -36.88540 -59.05086 33946 ft 429 kts 210°
2026-05-05 20:08 -36.93983 -59.07944 33963 ft 428 kts 210°
2026-05-05 20:09 -36.99505 -59.10851 33981 ft 428 kts 210°
2026-05-05 20:09 -37.05001 -59.13748 33984 ft 429 kts 210°
2026-05-05 20:10 -37.10495 -59.16647 33991 ft 429 kts 210°
2026-05-05 20:10 -37.15063 -59.19061 34000 ft 428 kts 210°
2026-05-05 20:11 -37.21466 -59.22450 33993 ft 427 kts 210°
2026-05-05 20:11 -37.27070 -59.24926 33973 ft 432 kts 205°
2026-05-05 20:12 -37.32831 -59.27080 33982 ft 432 kts 204°
2026-05-05 20:12 -37.38601 -59.29243 33970 ft 433 kts 205°
2026-05-05 20:13 -37.44359 -59.31451 33967 ft 432 kts 205°
2026-05-05 20:13 -37.50115 -59.33681 33971 ft 433 kts 205°
2026-05-05 20:14 -37.55880 -59.35926 33986 ft 434 kts 205°
2026-05-05 20:14 -37.61662 -59.38181 33974 ft 436 kts 205°
2026-05-05 20:15 -37.67463 -59.40445 33964 ft 437 kts 205°
2026-05-05 20:15 -37.73274 -59.42715 33964 ft 437 kts 205°
2026-05-05 20:16 -37.78106 -59.44606 33998 ft 437 kts 206°
2026-05-05 20:16 -37.83925 -59.46887 33978 ft 438 kts 206°
2026-05-05 20:17 -37.89746 -59.49172 33956 ft 438 kts 206°
2026-05-05 20:17 -37.95561 -59.51458 33965 ft 438 kts 206°
2026-05-05 20:18 -38.01375 -59.53748 33984 ft 437 kts 206°
2026-05-05 20:18 -38.07186 -59.56042 33968 ft 437 kts 206°
2026-05-05 20:19 -38.13002 -59.58341 33958 ft 437 kts 206°
2026-05-05 20:19 -38.19393 -59.60869 33972 ft 437 kts 207°
2026-05-05 20:20 -38.25192 -59.63172 33992 ft 437 kts 207°
2026-05-05 20:20 -38.30996 -59.65478 33974 ft 436 kts 207°
2026-05-05 20:21 -38.36780 -59.67781 33951 ft 436 kts 207°
2026-05-05 20:21 -38.42572 -59.70093 33969 ft 435 kts 207°
2026-05-05 20:22 -38.48349 -59.72404 33987 ft 435 kts 208°
2026-05-05 20:22 -38.54121 -59.74717 33970 ft 435 kts 208°
2026-05-05 20:23 -38.59893 -59.77034 33963 ft 434 kts 208°
2026-05-05 20:23 -38.65655 -59.79351 33965 ft 434 kts 208°
2026-05-05 20:24 -38.71371 -59.81653 33984 ft 433 kts 208°
2026-05-05 20:24 -38.77118 -59.83971 33977 ft 433 kts 208°
2026-05-05 20:25 -38.82859 -59.86291 33965 ft 432 kts 208°
2026-05-05 20:25 -38.88589 -59.88611 33973 ft 432 kts 208°
2026-05-05 20:26 -38.94315 -59.90933 33990 ft 432 kts 208°
2026-05-05 20:26 -39.00034 -59.93256 33977 ft 431 kts 208°
2026-05-05 20:27 -39.05753 -59.95582 33972 ft 431 kts 208°
2026-05-05 20:27 -39.11459 -59.97908 33971 ft 430 kts 208°
2026-05-05 20:28 -39.17164 -60.00237 33970 ft 430 kts 208°
2026-05-05 20:28 -39.22859 -60.02566 33969 ft 429 kts 208°
2026-05-05 20:29 -39.28557 -60.04900 33973 ft 430 kts 208°
2026-05-05 20:29 -39.34253 -60.07238 33974 ft 430 kts 208°
2026-05-05 20:30 -39.39956 -60.09583 33980 ft 431 kts 208°
2026-05-05 20:30 -39.45664 -60.11933 33978 ft 431 kts 208°
2026-05-05 20:31 -39.51374 -60.14287 33972 ft 430 kts 208°
2026-05-05 20:31 -39.57082 -60.16645 33968 ft 430 kts 208°
2026-05-05 20:32 -39.62783 -60.19005 33978 ft 430 kts 208°
2026-05-05 20:32 -39.68468 -60.21360 33973 ft 428 kts 208°
2026-05-05 20:33 -39.74137 -60.23714 33976 ft 427 kts 208°
2026-05-05 20:33 -39.79792 -60.26067 33974 ft 426 kts 208°
2026-05-05 20:34 -39.85440 -60.28422 33977 ft 426 kts 208°
2026-05-05 20:34 -39.91077 -60.30775 33976 ft 425 kts 208°
2026-05-05 20:35 -39.96673 -60.33116 33975 ft 425 kts 208°
2026-05-05 20:35 -40.02297 -60.35472 33978 ft 425 kts 208°
2026-05-05 20:36 -40.07013 -60.37451 33971 ft 425 kts 208°
2026-05-05 20:36 -40.13550 -60.40199 33981 ft 425 kts 208°
2026-05-05 20:37 -40.19177 -60.42568 33980 ft 425 kts 208°
2026-05-05 20:37 -40.23854 -60.44541 33967 ft 425 kts 208°
2026-05-05 20:38 -40.29481 -60.46919 33997 ft 426 kts 208°
2026-05-05 20:38 -40.35127 -60.49310 33981 ft 426 kts 208°
2026-05-05 20:39 -40.40773 -60.51703 33978 ft 427 kts 208°
2026-05-05 20:39 -40.46428 -60.54105 33978 ft 427 kts 208°
2026-05-05 20:40 -40.52099 -60.56465 33982 ft 429 kts 207°
2026-05-05 20:40 -40.57839 -60.58702 33977 ft 430 kts 207°
2026-05-05 20:41 -40.63589 -60.60927 33975 ft 430 kts 207°
2026-05-05 20:41 -40.69328 -60.63167 34005 ft 430 kts 207°
2026-05-05 20:42 -40.75067 -60.65422 33983 ft 431 kts 207°
2026-05-05 20:42 -40.80816 -60.67689 33967 ft 431 kts 207°
2026-05-05 20:43 -40.86557 -60.69957 33968 ft 431 kts 207°
2026-05-05 20:43 -40.92296 -60.72227 33989 ft 431 kts 207°
2026-05-05 20:44 -40.98036 -60.74503 33979 ft 430 kts 207°
2026-05-05 20:44 -41.03772 -60.76781 33977 ft 430 kts 207°
2026-05-05 20:45 -41.12365 -60.80201 33975 ft 430 kts 207°
2026-05-05 20:45 -41.18084 -60.82483 33970 ft 429 kts 207°
2026-05-05 20:46 -41.23770 -60.84756 33971 ft 429 kts 207°
2026-05-05 20:46 -41.29487 -60.87045 33970 ft 429 kts 207°
2026-05-05 20:47 -41.35205 -60.89339 33994 ft 429 kts 208°
2026-05-05 20:47 -41.40921 -60.91636 33974 ft 429 kts 208°
2026-05-05 20:48 -41.46628 -60.93933 33968 ft 428 kts 208°
2026-05-05 20:48 -41.52330 -60.96233 33970 ft 428 kts 208°
2026-05-05 20:49 -41.58066 -60.98551 33977 ft 428 kts 208°
2026-05-05 20:49 -41.63716 -61.00839 33970 ft 427 kts 208°
2026-05-05 20:50 -41.69400 -61.03144 33968 ft 426 kts 208°
2026-05-05 20:50 -41.75074 -61.05450 33967 ft 426 kts 208°
2026-05-05 20:51 -41.80742 -61.07758 33973 ft 425 kts 208°
2026-05-05 20:51 -41.86402 -61.10066 33962 ft 425 kts 208°
2026-05-05 20:52 -41.92060 -61.12379 33962 ft 425 kts 208°
2026-05-05 20:52 -41.97715 -61.14694 33964 ft 425 kts 208°
2026-05-05 20:53 -42.03362 -61.17010 33974 ft 424 kts 208°
2026-05-05 20:53 -42.09005 -61.19328 33967 ft 424 kts 208°
2026-05-05 20:54 -42.14638 -61.21647 33965 ft 423 kts 208°
2026-05-05 20:54 -42.20264 -61.23968 33966 ft 423 kts 208°
2026-05-05 20:55 -42.25897 -61.26296 33968 ft 423 kts 209°
2026-05-05 20:55 -42.31519 -61.28623 33959 ft 422 kts 209°
2026-05-05 20:56 -42.37128 -61.30949 33965 ft 422 kts 209°
2026-05-05 20:56 -42.42732 -61.33279 33987 ft 421 kts 209°
2026-05-05 20:57 -42.48337 -61.35612 33967 ft 421 kts 209°
2026-05-05 20:57 -42.53932 -61.37945 33957 ft 421 kts 209°
2026-05-05 20:58 -42.59522 -61.40281 33959 ft 420 kts 209°
2026-05-05 20:58 -42.65111 -61.42621 33989 ft 420 kts 209°
2026-05-05 20:59 -42.70709 -61.44970 33967 ft 420 kts 210°
2026-05-05 20:59 -42.76295 -61.47317 33954 ft 420 kts 210°
2026-05-05 21:00 -42.81880 -61.49670 33953 ft 420 kts 210°
2026-05-05 21:00 -42.87453 -61.52020 33955 ft 420 kts 210°
2026-05-05 21:01 -42.93034 -61.54380 33962 ft 420 kts 210°
2026-05-05 21:01 -42.98605 -61.56738 33951 ft 419 kts 210°
2026-05-05 21:02 -43.04172 -61.59096 33954 ft 418 kts 210°
2026-05-05 21:02 -43.09736 -61.61456 33950 ft 418 kts 210°
2026-05-05 21:03 -43.15289 -61.63817 33953 ft 418 kts 210°
2026-05-05 21:03 -43.20843 -61.66183 33955 ft 418 kts 211°
2026-05-05 21:04 -43.26392 -61.68551 33950 ft 417 kts 211°
2026-05-05 21:04 -43.31934 -61.70922 33951 ft 417 kts 211°
2026-05-05 21:05 -43.37466 -61.73291 33958 ft 416 kts 211°
2026-05-05 21:05 -43.42974 -61.75654 33969 ft 414 kts 211°
2026-05-05 21:06 -43.48461 -61.78013 33951 ft 412 kts 211°
2026-05-05 21:06 -43.53921 -61.80367 33943 ft 411 kts 211°
2026-05-05 21:07 -43.59367 -61.82719 33963 ft 409 kts 212°
2026-05-05 21:07 -43.64782 -61.85060 33941 ft 407 kts 212°
2026-05-05 21:08 -43.70138 -61.87381 33953 ft 405 kts 212°
2026-05-05 21:08 -43.75503 -61.89712 33948 ft 404 kts 212°
2026-05-05 21:09 -43.80858 -61.92043 33984 ft 403 kts 212°
2026-05-05 21:09 -43.86200 -61.94372 33953 ft 402 kts 213°
2026-05-05 21:10 -43.91523 -61.96696 33938 ft 400 kts 213°
2026-05-05 21:10 -43.96829 -61.99019 33942 ft 399 kts 213°
2026-05-05 21:11 -44.02129 -62.01343 33943 ft 400 kts 213°
2026-05-05 21:11 -44.07438 -62.03677 33948 ft 400 kts 213°
2026-05-05 21:12 -44.12747 -62.06014 33953 ft 400 kts 213°
2026-05-05 21:12 -44.18058 -62.08354 33947 ft 400 kts 213°
2026-05-05 21:13 -44.23360 -62.10695 33942 ft 400 kts 213°
2026-05-05 21:13 -44.27774 -62.12649 33964 ft 401 kts 213°
2026-05-05 21:14 -44.34005 -62.15413 33946 ft 402 kts 213°
2026-05-05 21:14 -44.39292 -62.17758 33935 ft 401 kts 213°
2026-05-05 21:15 -44.44601 -62.20120 33937 ft 400 kts 213°
2026-05-05 21:15 -44.49904 -62.22485 33935 ft 400 kts 213°
2026-05-05 21:16 -44.55205 -62.24854 33944 ft 400 kts 213°
2026-05-05 21:16 -44.60511 -62.27230 33933 ft 400 kts 213°
2026-05-05 21:17 -44.65810 -62.29607 33931 ft 400 kts 214°
2026-05-05 21:17 -44.71109 -62.31987 33931 ft 400 kts 214°
2026-05-05 21:18 -44.76403 -62.34371 33959 ft 399 kts 213°
2026-05-05 21:18 -44.81685 -62.36753 33942 ft 398 kts 213°
2026-05-05 21:19 -44.86965 -62.39139 33929 ft 398 kts 213°
2026-05-05 21:19 -44.92244 -62.41531 33927 ft 398 kts 213°
2026-05-05 21:20 -44.97524 -62.43927 33928 ft 399 kts 213°
2026-05-05 21:20 -45.02810 -62.46332 33940 ft 400 kts 213°
2026-05-05 21:21 -45.07216 -62.48340 33934 ft 401 kts 212°
2026-05-05 21:21 -45.12523 -62.50763 33932 ft 401 kts 212°
2026-05-05 21:22 -45.17835 -62.53193 33926 ft 401 kts 213°
2026-05-05 21:22 -45.23147 -62.55629 33923 ft 401 kts 213°
2026-05-05 21:23 -45.28472 -62.58077 33938 ft 403 kts 212°
2026-05-05 21:23 -45.33821 -62.60542 33935 ft 405 kts 212°
2026-05-05 21:24 -45.39192 -62.63020 33924 ft 406 kts 212°
2026-05-05 21:24 -45.44585 -62.65514 33929 ft 409 kts 211°
2026-05-05 21:25 -45.50015 -62.68031 33927 ft 411 kts 211°
2026-05-05 21:25 -45.55470 -62.70562 33922 ft 413 kts 211°
2026-05-05 21:26 -45.60937 -62.73102 33921 ft 413 kts 211°
2026-05-05 21:26 -45.66407 -62.75650 33918 ft 413 kts 211°
2026-05-05 21:27 -45.71878 -62.78206 33915 ft 414 kts 211°
2026-05-05 21:27 -45.77371 -62.80779 33921 ft 417 kts 209°
2026-05-05 21:28 -45.82895 -62.83370 33934 ft 419 kts 209°
2026-05-05 21:28 -45.85672 -62.84676 34073 ft 420 kts 209°
2026-05-05 21:28 -45.88447 -62.85978 34289 ft 419 kts 209°
2026-05-05 21:29 -45.91179 -62.87261 34518 ft 418 kts 209°
2026-05-05 21:29 -45.93938 -62.88558 34731 ft 417 kts 209°
2026-05-05 21:29 -45.96695 -62.89858 34904 ft 417 kts 209°
2026-05-05 21:29 -45.99492 -62.91181 35078 ft 419 kts 208°
2026-05-05 21:30 -46.05021 -62.93799 35282 ft 422 kts 207°
2026-05-05 21:30 -46.07814 -62.95122 35459 ft 422 kts 207°
2026-05-05 21:30 -46.10600 -62.96442 35657 ft 421 kts 207°
2026-05-05 21:31 -46.13384 -62.97762 35828 ft 421 kts 207°
2026-05-05 21:31 -46.16168 -62.99085 35912 ft 422 kts 207°
2026-05-05 21:31 -46.21765 -63.01751 35918 ft 424 kts 207°
2026-05-05 21:32 -46.27352 -63.04413 35919 ft 422 kts 207°
2026-05-05 21:32 -46.32925 -63.07077 35918 ft 421 kts 207°
2026-05-05 21:33 -46.38485 -63.09739 35915 ft 421 kts 207°
2026-05-05 21:33 -46.44034 -63.12403 35915 ft 420 kts 207°
2026-05-05 21:34 -46.49581 -63.15073 35918 ft 420 kts 207°
2026-05-05 21:34 -46.55134 -63.17752 35926 ft 421 kts 207°
2026-05-05 21:35 -46.60685 -63.20434 35915 ft 421 kts 207°
2026-05-05 21:35 -46.66245 -63.23126 35919 ft 421 kts 207°
2026-05-05 21:36 -46.71808 -63.25825 35918 ft 421 kts 207°
2026-05-05 21:36 -46.77371 -63.28531 35943 ft 422 kts 206°
2026-05-05 21:37 -46.82946 -63.31249 35924 ft 423 kts 206°
2026-05-05 21:37 -46.88530 -63.33976 35920 ft 423 kts 206°
2026-05-05 21:38 -46.94116 -63.36710 35918 ft 424 kts 206°
2026-05-05 21:38 -46.99707 -63.39454 35918 ft 424 kts 206°
2026-05-05 21:39 -47.05308 -63.42208 35918 ft 425 kts 206°
2026-05-05 21:39 -47.10913 -63.44970 35905 ft 425 kts 206°
2026-05-05 21:40 -47.16525 -63.47741 35923 ft 425 kts 206°
2026-05-05 21:40 -47.22139 -63.50520 35919 ft 426 kts 206°
2026-05-05 21:41 -47.27756 -63.53307 35930 ft 426 kts 206°
2026-05-05 21:41 -47.33384 -63.56107 35931 ft 427 kts 206°
2026-05-05 21:42 -47.39022 -63.58916 35923 ft 428 kts 206°
2026-05-05 21:42 -47.44665 -63.61734 35916 ft 428 kts 206°
2026-05-05 21:43 -47.50267 -63.64537 35925 ft 428 kts 206°
2026-05-05 21:43 -47.55911 -63.67369 35944 ft 429 kts 205°
2026-05-05 21:44 -47.61568 -63.70215 35933 ft 429 kts 205°
2026-05-05 21:44 -47.67230 -63.73069 35924 ft 430 kts 205°
2026-05-05 21:45 -47.72890 -63.75927 35921 ft 430 kts 205°
2026-05-05 21:45 -47.78547 -63.78792 35921 ft 430 kts 205°
2026-05-05 21:46 -47.84207 -63.81665 35927 ft 430 kts 205°
2026-05-05 21:46 -47.89873 -63.84548 35927 ft 431 kts 205°
2026-05-05 21:47 -47.95547 -63.87441 35927 ft 431 kts 205°
2026-05-05 21:47 -48.01219 -63.90339 35921 ft 431 kts 205°
2026-05-05 21:48 -48.06883 -63.93241 35930 ft 431 kts 205°
2026-05-05 21:48 -48.12553 -63.96152 35927 ft 430 kts 205°
2026-05-05 21:49 -48.18216 -63.99067 35932 ft 430 kts 205°
2026-05-05 21:49 -48.23881 -64.01989 35926 ft 430 kts 205°
2026-05-05 21:50 -48.29541 -64.04916 35930 ft 430 kts 205°
2026-05-05 21:50 -48.35203 -64.07849 35967 ft 430 kts 205°
2026-05-05 21:51 -48.40868 -64.10790 35934 ft 430 kts 205°
2026-05-05 21:51 -48.46526 -64.13735 35923 ft 430 kts 205°
2026-05-05 21:52 -48.55009 -64.18165 35929 ft 430 kts 205°
2026-05-05 21:53 -48.60669 -64.21129 35930 ft 430 kts 205°
2026-05-05 21:53 -48.66332 -64.24101 35934 ft 431 kts 205°
2026-05-05 21:54 -48.71992 -64.27080 35933 ft 431 kts 205°
2026-05-05 21:54 -48.77648 -64.30063 35924 ft 430 kts 205°
2026-05-05 21:55 -48.83302 -64.33052 35931 ft 430 kts 205°
2026-05-05 21:55 -48.88926 -64.36033 35930 ft 431 kts 205°
2026-05-05 21:56 -48.94586 -64.39041 35941 ft 431 kts 205°
2026-05-05 21:56 -49.00250 -64.42056 35931 ft 431 kts 205°
2026-05-05 21:57 -49.05907 -64.45076 35929 ft 431 kts 205°
2026-05-05 21:57 -49.11569 -64.48105 35927 ft 431 kts 205°
2026-05-05 21:58 -49.17232 -64.51143 35958 ft 431 kts 205°
2026-05-05 21:58 -49.22901 -64.54192 35939 ft 432 kts 205°
2026-05-05 21:59 -49.28578 -64.57252 35931 ft 432 kts 205°
2026-05-05 21:59 -49.34248 -64.60315 35932 ft 432 kts 205°
2026-05-05 22:00 -49.39924 -64.63390 35929 ft 432 kts 205°
2026-05-05 22:00 -49.45595 -64.66468 35955 ft 432 kts 205°
2026-05-05 22:01 -49.51270 -64.69558 35937 ft 433 kts 205°
2026-05-05 22:01 -49.56955 -64.72661 35932 ft 433 kts 205°
2026-05-05 22:02 -49.62639 -64.75770 35929 ft 433 kts 205°
2026-05-05 22:02 -49.68324 -64.78887 35931 ft 433 kts 205°
2026-05-05 22:03 -49.74004 -64.82010 35950 ft 433 kts 204°
2026-05-05 22:03 -49.79687 -64.85142 35937 ft 434 kts 204°
2026-05-05 22:04 -49.85371 -64.88282 35939 ft 434 kts 204°
2026-05-05 22:04 -49.91063 -64.91435 35924 ft 434 kts 204°
2026-05-05 22:05 -49.96750 -64.94592 35927 ft 434 kts 204°
2026-05-05 22:05 -50.02436 -64.97758 35948 ft 434 kts 204°
2026-05-05 22:06 -50.08117 -65.00928 35927 ft 434 kts 204°
2026-05-05 22:06 -50.13762 -65.04087 35931 ft 434 kts 204°
2026-05-05 22:07 -50.19444 -65.07274 35928 ft 434 kts 204°
2026-05-05 22:07 -50.25129 -65.10471 35927 ft 435 kts 204°
2026-05-05 22:08 -50.29897 -65.13159 35953 ft 435 kts 204°
2026-05-05 22:08 -50.35591 -65.16375 35933 ft 435 kts 204°
2026-05-05 22:09 -50.41280 -65.19597 35927 ft 434 kts 204°
2026-05-05 22:09 -50.46967 -65.22826 35924 ft 435 kts 204°
2026-05-05 22:10 -50.52653 -65.26064 35926 ft 435 kts 205°
2026-05-05 22:10 -50.58310 -65.29293 35942 ft 435 kts 205°
2026-05-05 22:11 -50.64005 -65.32551 35930 ft 436 kts 204°
2026-05-05 22:11 -50.69698 -65.35817 35918 ft 435 kts 204°
2026-05-05 22:12 -50.75387 -65.39090 35923 ft 435 kts 205°
2026-05-05 22:12 -50.81076 -65.42370 35921 ft 435 kts 205°
2026-05-05 22:13 -50.86765 -65.45660 35922 ft 436 kts 205°
2026-05-05 22:13 -50.92460 -65.48962 35921 ft 436 kts 205°
2026-05-05 22:14 -50.98161 -65.52275 35916 ft 436 kts 205°
2026-05-05 22:14 -51.03865 -65.55599 35915 ft 437 kts 205°
2026-05-05 22:15 -51.09575 -65.58935 35918 ft 437 kts 205°
2026-05-05 22:15 -51.15287 -65.62282 35913 ft 438 kts 205°
2026-05-05 22:16 -51.21002 -65.65639 35921 ft 438 kts 205°
2026-05-05 22:16 -51.26716 -65.69004 35917 ft 437 kts 205°
2026-05-05 22:17 -51.32414 -65.72368 35915 ft 436 kts 205°
2026-05-05 22:17 -51.38102 -65.75736 35913 ft 436 kts 205°
2026-05-05 22:18 -51.43784 -65.79109 35912 ft 435 kts 205°
2026-05-05 22:18 -51.49459 -65.82487 35916 ft 435 kts 205°
2026-05-05 22:19 -51.55091 -65.85849 35913 ft 434 kts 205°
2026-05-05 22:19 -51.60755 -65.89238 35910 ft 434 kts 205°
2026-05-05 22:20 -51.66414 -65.92634 35903 ft 434 kts 205°
2026-05-05 22:20 -51.72069 -65.96037 35909 ft 434 kts 205°
2026-05-05 22:21 -51.77721 -65.99446 35925 ft 434 kts 205°
2026-05-05 22:21 -51.83410 -66.02741 35898 ft 435 kts 203°
2026-05-05 22:22 -51.89144 -66.05893 35910 ft 435 kts 203°
2026-05-05 22:22 -51.94881 -66.09056 35903 ft 436 kts 203°
2026-05-05 22:23 -52.00619 -66.12252 35904 ft 436 kts 203°
2026-05-05 22:23 -52.06360 -66.15469 35921 ft 437 kts 203°
2026-05-05 22:24 -52.12107 -66.18701 35903 ft 437 kts 203°
2026-05-05 22:24 -52.17847 -66.21937 35893 ft 437 kts 203°
2026-05-05 22:25 -52.23596 -66.25188 35900 ft 437 kts 204°
2026-05-05 22:25 -52.29352 -66.28452 35898 ft 438 kts 204°
2026-05-05 22:26 -52.35112 -66.31727 35921 ft 439 kts 203°
2026-05-05 22:26 -52.40876 -66.35012 35894 ft 439 kts 203°
2026-05-05 22:27 -52.46640 -66.38307 35894 ft 439 kts 203°
2026-05-05 22:27 -52.52399 -66.41607 35896 ft 438 kts 203°
2026-05-05 22:28 -52.58160 -66.44919 35883 ft 439 kts 204°
2026-05-05 22:28 -52.63923 -66.48242 35889 ft 439 kts 204°
2026-05-05 22:29 -52.69700 -66.51582 35886 ft 440 kts 204°
2026-05-05 22:29 -52.75475 -66.54930 35880 ft 440 kts 204°
2026-05-05 22:30 -52.81249 -66.58286 35884 ft 440 kts 204°
2026-05-05 22:30 -52.87024 -66.61653 35876 ft 440 kts 204°
2026-05-05 22:31 -52.92764 -66.65007 35876 ft 441 kts 204°
2026-05-05 22:31 -52.98519 -66.68495 35883 ft 441 kts 205°
2026-05-05 22:32 -53.04258 -66.72110 35876 ft 441 kts 205°
2026-05-05 22:32 -53.09998 -66.75734 35879 ft 442 kts 205°
2026-05-05 22:33 -53.15747 -66.79357 35869 ft 442 kts 205°
2026-05-05 22:33 -53.21496 -66.82981 35872 ft 442 kts 205°
2026-05-05 22:34 -53.27245 -66.86613 35876 ft 442 kts 205°
2026-05-05 22:34 -53.32998 -66.90260 35877 ft 443 kts 205°
2026-05-05 22:35 -53.38758 -66.93923 35865 ft 443 kts 205°
2026-05-05 22:35 -53.44524 -66.97598 35861 ft 443 kts 205°
2026-05-05 22:36 -53.50283 -67.01281 35857 ft 443 kts 205°
2026-05-05 22:36 -53.56047 -67.04977 35819 ft 444 kts 205°
2026-05-05 22:36 -53.58955 -67.06848 35230 ft 449 kts 205°
2026-05-05 22:37 -53.61854 -67.08713 34650 ft 445 kts 205°
2026-05-05 22:37 -53.64748 -67.10577 33970 ft 446 kts 205°
2026-05-05 22:37 -53.67611 -67.12426 33193 ft 447 kts 205°
2026-05-05 22:37 -53.70515 -67.14303 32464 ft 447 kts 205°
2026-05-05 22:38 -53.73414 -67.16180 31741 ft 447 kts 205°
2026-05-05 22:38 -53.76315 -67.18061 31010 ft 447 kts 205°
2026-05-05 22:38 -53.79220 -67.19947 30266 ft 447 kts 205°
2026-05-05 22:38 -53.82129 -67.21840 29426 ft 448 kts 205°
2026-05-05 22:39 -53.85032 -67.23730 28572 ft 447 kts 205°
2026-05-05 22:39 -53.87936 -67.25625 27726 ft 446 kts 205°
2026-05-05 22:39 -53.90831 -67.27516 26871 ft 446 kts 204°
2026-05-05 22:39 -53.93730 -67.29412 25988 ft 446 kts 204°
2026-05-05 22:40 -53.96619 -67.31305 25328 ft 442 kts 204°
2026-05-05 22:40 -53.99477 -67.33178 24665 ft 438 kts 204°
2026-05-05 22:40 -54.02306 -67.35036 24038 ft 434 kts 204°
2026-05-05 22:40 -54.05097 -67.36872 23416 ft 430 kts 204°
2026-05-05 22:41 -54.07882 -67.38707 22680 ft 426 kts 204°
2026-05-05 22:41 -54.10625 -67.40517 22058 ft 420 kts 204°
2026-05-05 22:41 -54.13328 -67.42303 21449 ft 414 kts 204°
2026-05-05 22:41 -54.15999 -67.44071 20844 ft 410 kts 204°
2026-05-05 22:42 -54.18648 -67.45827 20242 ft 406 kts 204°
2026-05-05 22:42 -54.21278 -67.47573 19635 ft 404 kts 204°
2026-05-05 22:42 -54.23888 -67.49309 19033 ft 401 kts 204°
2026-05-05 22:42 -54.26487 -67.51040 18465 ft 404 kts 204°
2026-05-05 22:43 -54.29129 -67.52803 17824 ft 410 kts 204°
2026-05-05 22:43 -54.31788 -67.54580 17174 ft 408 kts 204°
2026-05-05 22:43 -54.34413 -67.56332 16558 ft 402 kts 204°
2026-05-05 22:43 -54.37000 -67.58062 15976 ft 397 kts 203°
2026-05-05 22:44 -54.39556 -67.59773 15375 ft 393 kts 204°
2026-05-05 22:44 -54.42087 -67.61472 14784 ft 389 kts 204°
2026-05-05 22:44 -54.44607 -67.63165 14216 ft 386 kts 204°
2026-05-05 22:44 -54.47065 -67.64818 14056 ft 372 kts 204°
2026-05-05 22:45 -54.49450 -67.66345 13878 ft 361 kts 198°
2026-05-05 22:45 -54.51914 -67.66774 13310 ft 366 kts 178°
2026-05-05 22:45 -54.54426 -67.66398 13044 ft 354 kts 178°
2026-05-05 22:45 -54.56840 -67.66067 12360 ft 348 kts 178°
2026-05-05 22:46 -54.59249 -67.65772 11581 ft 346 kts 179°
2026-05-05 22:46 -54.61640 -67.65499 10817 ft 343 kts 179°
2026-05-05 22:46 -54.64009 -67.65234 10071 ft 341 kts 179°
2026-05-05 22:46 -54.66333 -67.64971 9877 ft 322 kts 179°
2026-05-05 22:47 -54.68488 -67.64725 9839 ft 300 kts 179°
2026-05-05 22:47 -54.70509 -67.64495 9749 ft 283 kts 180°
2026-05-05 22:47 -54.72464 -67.64277 9416 ft 275 kts 180°
2026-05-05 22:47 -54.74325 -67.64535 8917 ft 271 kts 197°
2026-05-05 22:48 -54.76176 -67.65350 8452 ft 272 kts 197°
2026-05-05 22:48 -54.77998 -67.66088 8184 ft 263 kts 196°
2026-05-05 22:48 -54.79739 -67.66760 8047 ft 249 kts 196°
2026-05-05 22:48 -54.81391 -67.67392 7776 ft 240 kts 197°
2026-05-05 22:49 -54.83031 -67.67989 7123 ft 244 kts 195°
2026-05-05 22:49 -54.84671 -67.68538 6852 ft 240 kts 196°
2026-05-05 22:49 -54.86315 -67.69091 6589 ft 240 kts 197°
2026-05-05 22:49 -54.87924 -67.69667 6428 ft 236 kts 198°
2026-05-05 22:50 -54.89368 -67.70854 6192 ft 227 kts 231°
2026-05-05 22:50 -54.90101 -67.73210 5945 ft 225 kts 261°
2026-05-05 22:50 -54.90146 -67.75890 5711 ft 221 kts 279°
2026-05-05 22:50 -54.89875 -67.78464 5465 ft 213 kts 283°
2026-05-05 22:51 -54.89580 -67.80939 5214 ft 206 kts 284°
2026-05-05 22:51 -54.89286 -67.83328 5005 ft 198 kts 285°
2026-05-05 22:51 -54.89012 -67.85626 4794 ft 191 kts 285°
2026-05-05 22:51 -54.88750 -67.87852 4581 ft 185 kts 286°
2026-05-05 22:52 -54.88499 -67.90002 4380 ft 179 kts 286°
2026-05-05 22:52 -54.88258 -67.92085 4170 ft 173 kts 286°
2026-05-05 22:52 -54.88025 -67.94097 3972 ft 168 kts 286°
2026-05-05 22:52 -54.87795 -67.96087 3787 ft 169 kts 286°
2026-05-05 22:53 -54.87561 -67.98100 3606 ft 171 kts 285°
2026-05-05 22:53 -54.87323 -68.00148 3415 ft 174 kts 285°
2026-05-05 22:53 -54.87084 -68.02203 3221 ft 176 kts 285°
2026-05-05 22:53 -54.86883 -68.03589 3077 ft 174 kts 289°
2026-05-05 22:54 -54.86549 -68.05563 2894 ft 171 kts 290°
2026-05-05 22:54 -54.86202 -68.07584 2710 ft 174 kts 290°
2026-05-05 22:54 -54.85861 -68.09580 2448 ft 170 kts 289°
2026-05-05 22:54 -54.85543 -68.11459 2197 ft 159 kts 289°
2026-05-05 22:55 -54.85240 -68.13239 1901 ft 149 kts 287°
2026-05-05 22:55 -54.84944 -68.14977 1770 ft 153 kts 287°
2026-05-05 22:55 -54.84642 -68.16754 1554 ft 150 kts 287°
2026-05-05 22:55 -54.84354 -68.18446 1369 ft 147 kts 286°
2026-05-05 22:56 -54.84187 -68.20208 1106 ft 147 kts 272°
2026-05-05 22:56 -54.84169 -68.21950 882 ft 147 kts 273°
2026-05-05 22:56 -54.84169 -68.23713 668 ft 147 kts 271°
2026-05-05 22:56 -54.84198 -68.25483 399 ft 146 kts 270°
2026-05-05 22:57 -54.84245 -68.27229 178 ft 145 kts 267°
2026-05-05 22:57 -54.84313 -68.28920 82 ft 130 kts 269°
2026-05-05 22:57 -54.84357 -68.30248 79 ft 88 kts 266°
2026-05-05 22:57 -54.84387 -68.31042 108 ft 45 kts 266°
2026-05-05 22:58 -54.84384 -68.31288 130 ft 11 kts 318°
2026-05-05 22:58 -54.84321 -68.31315 85 ft 5 kts 356°
2026-05-05 22:58 -54.84287 -68.31318 85 ft 5 kts 356°
2026-05-05 22:58 -54.84251 -68.31322 86 ft 5 kts 356°
2026-05-05 22:59 -54.84215 -68.31325 84 ft 5 kts 356°
2026-05-05 22:59 -54.84181 -68.31328 86 ft 5 kts 356°
2026-05-05 22:59 -54.84146 -68.31332 81 ft 5 kts 356°
2026-05-05 22:59 -54.84114 -68.31318 86 ft 5 kts 29°
2026-05-05 23:00 -54.84054 -68.31268 84 ft 5 kts 21°
2026-05-05 23:00 -54.84038 -68.31258 81 ft 1 kts 19°
2026-05-05 23:00 -54.84031 -68.31254 85 ft 1 kts 19°
2026-05-05 23:01 -54.84028 -68.31252 84 ft 0 kts 20°